Regional Weather Roundup
Issued by NWS

Home | Current Version | Previous Version | Graphics & Text | Print | Product List | Glossary Off
Versions: 1 2 3 4 5 6 7 8 9 10 11 12 13 14 15 16 17 18 19 20 21 22 23 24 25 26 27 28 29 30 31 32 33 34 35 36 37 38 39 40 41 42 43 44 45 46 47 48 49 50

000
ASUS43 KMKX 270259
RWRWI

WISCONSIN REGIONAL WEATHER ROUNDUP
NATIONAL WEATHER SERVICE MILWAUKEE/SULLIVAN WI
900 PM CST MON JAN 26 2015

NOTE: "FAIR" INDICATES FEW OR NO CLOUDS BELOW 12,000 FEET WITH NO
SIGNIFICANT WEATHER AND/OR OBSTRUCTIONS TO VISIBILITY.

WIZ001-002-006>008-014>016-023>028-270400-
NORTHWEST WISCONSIN

CITY           SKY/WX    TMP DP  RH WIND       PRES   REMARKS
SUPERIOR ARPT  CLOUDY    31  26  83 N8        29.93R WCI  24
ASHLAND        CLOUDY    24  23  96 NW3       29.92R
HAYWARD        CLOUDY    28  24  85 N5        29.89R WCI  23
SIREN          CLOUDY    33  32  96 N5        29.90R WCI  28
CUMBERLAND     CLOUDY    32  30  93 N9G18     29.87R WCI  24
RICE LAKE      CLOUDY    28  26  95 CALM      29.89R FOG
CHETEK         CLOUDY    26  25  96 N3        29.88R
LADYSMITH      CLOUDY    24  23  93 CALM      29.88R
EAU CLAIRE     LGT SNOW  27  25  92 CALM      29.88R FOG
MENOMONIE      CLOUDY    30  29  95 CALM      29.88R FOG
NEW RICHMOND   CLOUDY    36  30  80 N7        29.89R WCI  30
OSCEOLA        CLOUDY    37  31  80 NW5       29.93R WCI  33
$$

WIZ003>005-009-010-017-018-270400-
NORTH CENTRAL WISCONSIN

CITY           SKY/WX    TMP DP  RH WIND       PRES   REMARKS
MANITOWISH WTR CLOUDY    19  17  93 CALM      29.85R
ARBOR VITAE    CLOUDY    21  18  89 CALM      29.85R
WOODRUFF       CLOUDY    21  18  89 CALM      29.85R
RHINELANDER    CLOUDY    19  16  88 SE3       29.85F
EAGLE RIVER    FLURRIES  19  16  86 SE3       29.85R
LAND O LAKES   CLOUDY    19  17  91 CALM      29.86R
PHILLIPS       CLOUDY    20  18  91 CALM      29.85R
TOMAHAWK       CLOUDY    19  17  91 CALM      29.86R
MEDFORD        CLOUDY    21  19  93 CALM      29.84R
MERRILL        CLOUDY    20  19  94 CALM      29.87R
$$

WIZ029-030-035-036-043>047-270400-
CENTRAL WISCONSIN

CITY           SKY/WX    TMP DP  RH WIND       PRES   REMARKS
WAUSAU         CLOUDY    21  19  92 NE3       29.87R
MOSINEE        NOT AVBL
MARSHFIELD     CLOUDY    23  20  88 E3        29.86R
STEVENS POINT  MIX PCPN  20  19  96 CALM      29.88R
WAUPACA        LGT SNOW  26  23  89 CALM      29.89R
WAUTOMA        NOT AVBL
WISC RAPIDS    CLOUDY    23  20  88 CALM      29.89R
CAMP DOUGLAS   NOT AVBL
$$

WIZ011>013-019>022-031-037>040-048>050-270400-
NORTHEAST WISCONSIN

CITY           SKY/WX    TMP DP  RH WIND       PRES   REMARKS
ANTIGO         FLURRIES  20  19  95 CALM      29.86R
SHAWANO        LGT SNOW  26  23  89 E3        29.91R
OCONTO         CLOUDY    25  23  94 CALM      29.92R
STURGEON BAY   CLOUDY    23  18  80 SE8       29.95R WCI  14
GREEN BAY      LGT SNOW  24  22  91 SE3       29.91S FOG
MANITOWOC      NOT AVBL
APPLETON       LGT SNOW  25  23  93 SE7       29.89S WCI  17
CLINTONVILLE   LGT SNOW  25  23  93 E3        29.89R
OSHKOSH        LGT SNOW  24  21  88 SE3       29.90R FOG
$$

WIZ032>034-041-042-053>061-270400-
SOUTHWEST WISCONSIN

CITY           SKY/WX    TMP DP  RH WIND       PRES   REMARKS
LA CROSSE      CLOUDY    31  27  85 CALM      29.89R
SPARTA         CLOUDY    27  26  99 CALM      29.88R FOG
VIROQUA        CLOUDY    26  26 100 CALM      29.84R
BOSCOBEL       CLOUDY    27  24  89 CALM      29.88S FOG
PRAIRIE DU CHI CLOUDY    29  26  86 CALM      29.88R FOG
PLATTEVILLE    PTCLDY    26  25  96 CALM      29.86R
$$

WIZ056-057-062-063-064-067-068-270400-
SOUTH CENTRAL WISCONSIN

CITY           SKY/WX    TMP DP  RH WIND       PRES   REMARKS
REEDSBURG      LGT SNOW  24  23  95 CALM      29.86S
BARABOO/DELLS  LGT SNOW  23  22  93 CALM      29.86R
LONE ROCK      CLOUDY    25  23  92 CALM      29.88S
MINERAL POINT  CLOUDY    27  27 100 CALM      29.85R FOG
MADISON        LGT SNOW  24  22  91 S6        29.87S FOG     WCI  17
MIDDLETON      CLOUDY    26  25  96 CALM      29.87S
WATERTOWN      LGT SNOW  24  24  99 SE5       29.89R WCI  18
MONROE         LGT SNOW  25  25 100 SE5       29.85S WCI  19
JANESVILLE     CLOUDY    27  25  93 S5        29.88S FOG     WCI  21
$$

WIZ051-052-058>065-066-070>072-270400-
SOUTHEAST WISCONSIN

CITY           SKY/WX    TMP DP  RH WIND       PRES   REMARKS
MILWAUKEE      LGT SNOW  26  22  84 SW6       29.91R WCI  19
WAUKESHA       LGT SNOW  23  21  93 SE7       29.90R WCI  15
MILWAUKEE/TIMM FLURRIES  25  21  86 S5        29.91R WCI  19
RACINE         LGT SNOW  26  23  88 SW5       29.92R FOG     WCI  20
BURLINGTON     CLOUDY    24  23  96 S3        29.90R FOG
KENOSHA        LGT SNOW  26  24  92 S3        29.90R FOG
FOND DU LAC    LGT SNOW  24  21  88 SE3       29.89S FOG
SHEBOYGAN      FLURRIES  26  22  84 CALM      29.92R
WEST BEND      LGT SNOW  25  21  86 SE3       29.89R
JUNEAU         LGT SNOW  24  22  94 S5        29.89S WCI  18
$$

LSZ147-162-270400-
LAKE SUPERIOR

STATION/POSITION TIME  TEMP    WIND        PRES    WAVE
                       AIR SEA DIR/SP/G            HT/PER
                 (UTC) (F)     (DEG/KT/KT) (MB)    (FT/S)
DEVILS ISLAND    0200   27      10/  5/  6 1013.4R
PORT WING        0240   27     110/  1/  1 1013.5R
SAXON HARBOR     0200   24        CALM     1012.2R
$$

LMZ867-665-643>646-270400-
LAKE MICHIGAN

STATION/POSITION TIME  TEMP    WIND        PRES    WAVE
                       AIR SEA DIR/SP/G            HT/PER
                 (UTC) (F)     (DEG/KT/KT) (MB)    (FT/S)
NORTHPORT PIER   0221   24     130/ 10/ 15 1014.6R
SISTER BAY       0213   25     120/  9/ 13   N/A
KEWAUNEE LAKESHO 0200   27     160/ 13/ 18 1012.5R
SHEBOYGAN LAKESH 0200   27     140/ 17/ 20 1013.7R
PORT WASHINGTON  0240   27     220/  4/  6 1013.9R
MILWAUKEE LAKESH 0200   26     190/  6/  7   N/A
KENOSHA   LAKESH 0200   27     180/  5/  7 1012.5F
$$

TC  - TEMPERATURE IN CELSIUS
VSB - VISIBILITY IN STATUTE MILES
WCI - WIND CHILL INDEX
HX  - HEAT INDEX



USA.gov is the U.S. government's official web portal to all federal, state and local government web resources and services.